[[{"header":{"parameterUnit":"m.s-1","parameterCategory":1,"la1":30.2991,"la2":30.254,"lo1":-89.0895,"lo2":-89.0444,"dy":0.0017,"dx":0.0017,"nx":28,"ny":28,"refTime":"2025-01-20T03:00:00:Z","depth":0,"parameterNumber":2,"parameterNumberName":"U-component_of_WINDS"},"data":[0,0,0,0,0,0,0,0,0,0,0,0,0,0,0,0,0,0,0,0,0,0,0,0,0,0,0,0,0,0,0,0,0,0,0,0,0,0,0,0,0,0,0,0,0,0,0,0,0,0,0,0,0,0,0,0,0,0,2.1332,2.1333,0,2.1406,2.1406,2.1407,2.1412,2.1411,2.141,2.1409,2.1485,2.1487,2.149,0,0,0,0,0,0,0,0,0,0,0,0,0,2.1198,2.12,2.1332,2.1333,2.1334,2.1405,2.1406,2.1407,2.1412,2.1411,2.141,2.1409,2.1484,2.1487,2.149,0,0,0,0,0,0,0,0,0,0,0,0,0,2.1262,2.1201,2.1332,2.1345,2.1347,2.1405,2.1406,2.1408,2.1412,2.1411,2.141,2.1409,2.1483,2.1487,2.1491,2.1541,0,0,2.1503,2.1505,0,0,0,0,0,0,0,0,2.1258,2.1267,2.1342,2.1344,2.1346,2.1398,2.1387,2.1452,2.1413,2.1387,2.1409,2.1408,2.1457,2.1463,2.148,2.1545,2.1548,2.1504,2.1506,2.1508,2.1509,0,0,0,0,0,0,0,2.1254,2.1264,2.1361,2.1343,2.1346,2.1348,2.1355,2.1399,2.1428,2.139,2.139,2.1399,2.1458,2.1476,2.1481,2.1549,2.1504,2.1507,2.151,2.1512,2.1661,2.1663,0,0,0,0,0,0,2.1247,2.126,2.1359,2.1363,2.1298,2.1351,2.136,2.1383,2.1428,2.1433,2.14,2.1399,2.1469,2.1476,2.1484,2.1547,2.1508,2.1512,2.1514,2.166,2.1662,2.1663,0,0,0,0,0,0,2.1244,2.1256,2.1356,2.1312,2.1325,2.1355,2.1381,2.1385,2.1403,2.1435,2.1441,2.1412,2.1468,2.1478,2.1527,2.155,2.1514,2.1518,2.1658,2.166,2.1662,2.1673,0,0,0,0,0,0,2.124,2.1255,2.1274,2.1312,2.1327,2.1398,2.1382,2.1387,2.141,2.1409,2.1449,2.1454,2.1468,2.1521,2.1531,2.1555,2.1521,2.1656,2.1659,2.1662,2.167,2.1675,2.1679,0,0,0,0,0,2.1235,2.1273,2.1274,2.1286,2.1352,2.1399,2.1407,2.1423,2.1412,2.1431,2.1453,2.1453,2.1546,2.1526,2.1538,2.1563,2.1655,2.1658,2.1661,2.1669,2.1674,2.1679,0,0,0,0,0,0,2.1236,2.1278,2.128,2.1332,2.1362,2.1399,2.1425,2.1428,2.1461,2.1459,2.1477,2.1486,2.1535,2.1554,2.1531,2.1615,2.1599,2.1605,2.16,2.1606,2.161,2.1604,2.1524,0,0,0,0,0,2.1242,2.1277,2.1312,2.1354,2.1369,2.1394,2.1416,2.1425,2.1457,2.1469,2.1494,2.1525,2.1561,2.1585,2.162,2.1674,2.1683,2.1697,2.1701,2.1704,2.1709,2.174,2.1746,2.1674,2.1674,2.1674,0,0,2.1255,2.1283,2.1303,2.1355,2.1379,2.1415,2.1405,2.1443,2.147,2.1475,2.1523,2.1543,2.1579,2.1631,2.1655,2.1648,2.1731,2.1708,2.1711,2.1714,2.1744,2.1751,2.1757,2.1676,2.1676,2.1676,0,0,2.1297,2.1321,2.1359,2.1384,2.1421,2.1438,2.1447,2.1485,2.1499,2.1547,2.1552,2.1585,2.1647,2.1673,2.1694,2.1748,2.1749,2.1759,2.178,2.181,2.1816,2.1821,2.1841,2.1848,2.1763,2.1763,2.1763,0,2.1308,2.1362,2.1378,2.1417,2.144,2.1447,2.1486,2.151,2.1557,2.1573,2.1564,2.1643,2.1668,2.1726,2.174,2.1757,2.1768,2.1754,2.1814,2.1819,2.1824,2.1843,2.1851,2.1764,2.1764,2.1764,2.1764,0,2.1374,2.1412,2.1439,2.1484,2.151,2.1549,2.1572,2.1597,2.1605,2.1623,2.1673,2.1703,2.1745,2.176,2.1767,2.182,2.1815,2.181,2.1794,2.1832,2.185,2.1857,2.1766,2.1765,2.1765,2.1765,0,0,2.1417,2.1472,2.1482,2.1503,2.1546,2.1575,2.1615,2.1656,2.1677,2.171,2.1744,2.1798,2.1794,2.1818,2.1829,2.1855,2.1897,2.1848,2.1849,2.1856,2.1958,2.1961,2.1969,2.1899,2.1901,2.1902,2.1955,0,2.1464,2.1534,2.1551,2.1611,2.1647,2.1655,2.169,2.172,2.1739,2.1772,2.1793,2.183,2.1823,2.1837,2.1864,2.1887,2.1918,2.1883,2.1932,2.1933,2.1922,2.1979,2.1982,2.2031,2.1963,2.1964,2.1965,0,2.1527,2.1561,2.1626,2.1665,2.168,2.1711,2.1751,2.1783,2.1818,2.183,2.1858,2.1867,2.1909,2.1892,2.1952,2.1928,2.1949,2.1963,2.1966,2.197,2.1951,2.1985,2.2047,2.2054,2.1976,2.1975,2.1974,0,2.1552,2.1615,2.1661,2.1679,2.1726,2.1748,2.1768,2.1802,2.1827,2.1862,2.1878,2.1918,2.194,2.1971,2.1991,2.1977,2.2049,2.2034,2.206,2.206,2.2075,2.2073,2.214,2.2089,2.2089,2.2088,2.2088,0,2.1602,2.1641,2.1673,2.1702,2.1746,2.1766,2.181,2.1831,2.1861,2.1895,2.1905,2.1936,2.1961,2.1996,2.2012,2.2059,2.2069,2.208,2.2084,2.2079,2.2077,2.2092,2.209,2.209,2.209,2.209,2.2089,0,2.1637,2.166,2.1712,2.1752,2.1764,2.1795,2.183,2.1859,2.1878,2.192,2.1932,2.1962,2.2004,2.2028,2.208,2.2091,2.2144,2.2146,2.2132,2.2134,2.2159,2.2157,2.2238,2.225,2.219,2.2191,2.2191,0,2.1667,2.1697,2.1742,2.1765,2.1786,2.1823,2.1848,2.187,2.1896,2.1939,2.1963,2.2006,2.2041,2.2108,2.2135,2.2176,2.2179,2.2205,2.2185,2.218,2.2179,2.2177,2.2181,2.2208,2.2208,2.2209,2.2209,0,2.1718,2.1729,2.1764,2.1805,2.1835,2.1867,2.19,2.1919,2.1946,2.1974,2.2018,2.2045,2.21,2.2142,2.2185,2.2207,2.2213,2.2215,2.2224,2.2219,2.221,2.2215,2.2141,2.2213,2.2213,2.2212,2.2212,2.2212,2.1752,2.1779,2.1815,2.1855,2.1882,2.1913,2.1942,2.1966,2.2002,2.2048,2.2059,2.2105,2.2141,2.22,2.2223,2.226,2.2255,2.2267,2.227,2.2273,2.2274,2.2204,2.2268,2.2268,2.2268,2.2268,2.2268,0,2.1804,2.1827,2.1864,2.191,2.1942,2.1945,2.1982,2.2008,2.2048,2.2081,2.2116,2.2167,2.2209,2.224,2.2283,2.2307,2.2311,2.2317,2.2316,2.2321,2.2276,2.2264,2.2314,2.2314,2.2314,2.2314,2.2314,2.2314,2.1834,2.1882,2.1897,2.1958,2.1982,2.2027,2.2048,2.2077,2.2104,2.216,2.2194,2.2215,2.2248,2.2294,2.2333,2.2341,2.2357,2.2363,2.2372,2.2329,2.2324,2.2319,2.2308,2.2366,2.2366,2.2414,2.2414,2.2414]},{"header":{"parameterUnit":"m.s-1","parameterCategory":1,"la1":30.2991,"la2":30.254,"lo1":-89.0895,"lo2":-89.0444,"dy":0.0017,"dx":0.0017,"nx":28,"ny":28,"refTime":"2025-01-20T03:00:00:Z","depth":0,"parameterNumber":3,"parameterNumberName":"V-component_of_WINDS"},"data":[0,0,0,0,0,0,0,0,0,0,0,0,0,0,0,0,0,0,0,0,0,0,0,0,0,0,0,0,0,0,0,0,0,0,0,0,0,0,0,0,0,0,0,0,0,0,0,0,0,0,0,0,0,0,0,0,0,0,-8.5359,-8.536,0,-8.5537,-8.5539,-8.5541,-8.5453,-8.5449,-8.5444,-8.544,-8.5619,-8.5627,-8.5636,0,0,0,0,0,0,0,0,0,0,0,0,0,-8.4937,-8.4945,-8.5358,-8.5361,-8.5363,-8.5537,-8.554,-8.5542,-8.5454,-8.5449,-8.5443,-8.5438,-8.5616,-8.5626,-8.5637,0,0,0,0,0,0,0,0,0,0,0,0,0,-8.5118,-8.4948,-8.5358,-8.534,-8.534,-8.5537,-8.554,-8.5543,-8.5455,-8.5448,-8.5441,-8.5435,-8.5612,-8.5625,-8.5639,-8.5861,0,0,-8.568,-8.5686,0,0,0,0,0,0,0,0,-8.5108,-8.5134,-8.5341,-8.5342,-8.5342,-8.5466,-8.5456,-8.5649,-8.5457,-8.5412,-8.544,-8.5432,-8.5573,-8.5589,-8.5638,-8.587,-8.5877,-8.5681,-8.569,-8.5695,-8.5699,0,0,0,0,0,0,0,-8.5096,-8.5126,-8.5429,-8.5344,-8.5345,-8.5322,-8.534,-8.5493,-8.5529,-8.5415,-8.5409,-8.5432,-8.5572,-8.5625,-8.5642,-8.588,-8.5681,-8.5693,-8.5701,-8.5707,-8.6304,-8.6311,0,0,0,0,0,0,-8.5084,-8.5116,-8.5423,-8.5434,-8.5206,-8.5335,-8.5356,-8.5433,-8.5527,-8.5535,-8.5437,-8.5427,-8.5605,-8.5626,-8.5648,-8.5915,-8.5695,-8.5708,-8.5716,-8.6296,-8.6306,-8.6314,0,0,0,0,0,0,-8.5076,-8.5113,-8.5416,-8.5274,-8.5311,-8.535,-8.5438,-8.544,-8.5493,-8.5544,-8.555,-8.5485,-8.5601,-8.5628,-8.5809,-8.592,-8.5714,-8.5727,-8.6287,-8.6299,-8.631,-8.6452,0,0,0,0,0,0,-8.5064,-8.511,-8.5196,-8.5276,-8.5319,-8.5577,-8.5445,-8.5449,-8.5518,-8.5506,-8.559,-8.5598,-8.5597,-8.579,-8.5823,-8.5935,-8.5737,-8.6277,-8.6292,-8.6306,-8.6438,-8.6467,-8.6492,0,0,0,0,0,-8.5049,-8.5228,-8.5201,-8.5238,-8.5427,-8.5583,-8.5607,-8.5605,-8.5527,-8.5613,-8.5646,-8.5595,-8.5903,-8.5809,-8.5846,-8.5964,-8.627,-8.6288,-8.6305,-8.6425,-8.6461,-8.6492,0,0,0,0,0,0,-8.5158,-8.5238,-8.5209,-8.5419,-8.5495,-8.5568,-8.5677,-8.5642,-8.5741,-8.5725,-8.5716,-8.5736,-8.5924,-8.5962,-8.5856,-8.6184,-8.6074,-8.61,-8.6153,-8.6188,-8.6215,-8.6202,-8.5749,0,0,0,0,0,-8.5207,-8.5328,-8.5391,-8.557,-8.561,-8.5637,-8.5705,-8.5697,-8.5774,-8.5806,-8.5851,-8.5928,-8.6041,-8.6116,-8.6224,-8.6442,-8.646,-8.6542,-8.6569,-8.6591,-8.6613,-8.6732,-8.677,-8.6371,-8.6371,-8.637,0,0,-8.5308,-8.5366,-8.5443,-8.5593,-8.5651,-8.5777,-8.5665,-8.5801,-8.5894,-8.5826,-8.6,-8.6037,-8.6121,-8.6322,-8.6413,-8.6359,-8.6727,-8.6613,-8.6631,-8.6641,-8.6754,-8.6792,-8.6825,-8.6383,-8.638,-8.6379,0,0,-8.5556,-8.5613,-8.5769,-8.583,-8.592,-8.5937,-8.5975,-8.6054,-8.6076,-8.6251,-8.6203,-8.6312,-8.6508,-8.657,-8.6628,-8.6902,-8.6858,-8.6936,-8.7079,-8.7195,-8.7227,-8.7254,-8.7352,-8.7388,-8.6958,-8.6959,-8.6959,0,-8.567,-8.5858,-8.5853,-8.5995,-8.6062,-8.6008,-8.6166,-8.6225,-8.6345,-8.6392,-8.633,-8.6576,-8.6629,-8.6844,-8.6912,-8.696,-8.7002,-8.6927,-8.7223,-8.7251,-8.7276,-8.737,-8.7407,-8.6968,-8.6967,-8.6966,-8.6965,0,-8.5995,-8.6126,-8.6241,-8.636,-8.644,-8.6589,-8.6606,-8.6687,-8.6672,-8.6695,-8.6874,-8.6936,-8.7056,-8.7106,-8.7091,-8.732,-8.7284,-8.7223,-8.7112,-8.7324,-8.7411,-8.7447,-8.6981,-8.6977,-8.6975,-8.6972,0,0,-8.6316,-8.6432,-8.6474,-8.6528,-8.6624,-8.6725,-8.6871,-8.6989,-8.706,-8.7144,-8.7266,-8.7434,-8.7379,-8.7444,-8.7436,-8.7538,-8.7752,-8.7464,-8.7466,-8.7516,-8.8007,-8.8053,-8.8095,-8.7724,-8.773,-8.7736,-8.8,0,-8.6572,-8.683,-8.683,-8.7067,-8.7188,-8.7139,-8.7266,-8.7338,-8.7364,-8.747,-8.7497,-8.7617,-8.7534,-8.7574,-8.7672,-8.7705,-8.785,-8.7686,-8.7836,-8.7842,-8.7818,-8.814,-8.8189,-8.8436,-8.8035,-8.804,-8.8045,0,-8.6905,-8.7003,-8.7253,-8.7332,-8.7383,-8.7497,-8.7606,-8.7708,-8.7788,-8.78,-8.7874,-8.7851,-8.7998,-8.7883,-8.8087,-8.7975,-8.8036,-8.8062,-8.8071,-8.8085,-8.7956,-8.8164,-8.8514,-8.8552,-8.8098,-8.8094,-8.809,0,-8.7116,-8.7309,-8.7484,-8.7532,-8.7628,-8.771,-8.7754,-8.7827,-8.7899,-8.7994,-8.804,-8.815,-8.8211,-8.8296,-8.8303,-8.8218,-8.8508,-8.8393,-8.8521,-8.8521,-8.8584,-8.858,-8.895,-8.8624,-8.8623,-8.8622,-8.8621,0,-8.7402,-8.7557,-8.758,-8.7688,-8.786,-8.7858,-8.8028,-8.8065,-8.8131,-8.8244,-8.8207,-8.8314,-8.8316,-8.8425,-8.843,-8.8598,-8.8625,-8.8638,-8.8638,-8.8642,-8.8641,-8.8683,-8.8666,-8.8632,-8.863,-8.8628,-8.8626,0,-8.7666,-8.7688,-8.7876,-8.7952,-8.7975,-8.8099,-8.8163,-8.8266,-8.8288,-8.8432,-8.8465,-8.8501,-8.8627,-8.8642,-8.8788,-8.8792,-8.8995,-8.8976,-8.8968,-8.8966,-8.9093,-8.9081,-8.9503,-8.9559,-8.9195,-8.9199,-8.9201,0,-8.7848,-8.7966,-8.8056,-8.813,-8.8179,-8.8298,-8.8372,-8.8374,-8.8452,-8.8553,-8.8643,-8.8766,-8.8865,-8.9068,-8.9106,-8.9218,-8.9202,-8.9342,-8.9218,-8.9219,-8.9204,-8.9198,-8.921,-8.9366,-8.937,-8.9373,-8.9376,0,-8.8168,-8.8173,-8.8281,-8.8394,-8.8483,-8.8572,-8.8655,-8.8717,-8.873,-8.8819,-8.8949,-8.9025,-8.9176,-8.9298,-8.9409,-8.9452,-8.9417,-8.9414,-8.945,-8.9456,-8.9447,-8.9454,-8.9034,-8.9405,-8.9402,-8.94,-8.9398,-8.9397,-8.8397,-8.85,-8.858,-8.8702,-8.8765,-8.8844,-8.8944,-8.898,-8.9089,-8.9213,-8.9207,-8.935,-8.9427,-8.9573,-8.9624,-8.9735,-8.9688,-8.974,-8.9753,-8.9766,-8.9779,-8.9429,-8.9755,-8.9754,-8.9753,-8.9752,-8.9752,0,-8.8715,-8.8764,-8.8877,-8.8995,-8.9091,-8.9051,-8.9141,-8.9223,-8.935,-8.9426,-8.9525,-8.9674,-8.9792,-8.984,-8.9956,-9.0036,-9.0022,-9.0066,-9.006,-9.0071,-8.9814,-8.9772,-9.0075,-9.0075,-9.0075,-9.0075,-9.0075,-9.0075,-8.8892,-8.9066,-8.9081,-8.9285,-8.9332,-8.9473,-8.9528,-8.9601,-8.9661,-8.983,-8.993,-8.996,-9.0025,-9.0145,-9.0252,-9.0263,-9.0308,-9.0359,-9.0363,-9.0121,-9.0089,-9.0058,-9.0018,-9.0368,-9.0369,-9.0611,-9.0613,-9.0615]}]]